Terminal Aerodrome Forecast
Issued by NWS Wilmington, OH

Current Version | Previous Version | Text Only | Print | Product List | Glossary On
Versions: 1 2 3 4 5 6 7 8 9 10 11 12 13 14 15 16 17
000
FTUS41 KILN 311400 AAA
TAFDAY
TAF AMD
KDAY 311410Z 3114/0112 24006KT P6SM OVC060
     FM311500 28010KT P6SM -SHRA OVC045
     FM311700 29012KT P6SM -SHRA BKN015 OVC025
     FM311900 31014G22KT P6SM -SHRA SCT015 OVC025
     FM010000 33020G32KT P6SM -SHRA OVC010
     FM010400 33020G32KT 3SM -SN BR OVC008=

USA.gov is the U.S. government's official web portal to all federal, state and local government web resources and services.